Location: Newark
(25.4800°N, 85.7200°E)
Time: 21:11:03
(UTC+00:00)

Explorer 11/Cluster Stage 4 - Pass Details

Date: 27 August 2019
Orbit: 467 x 1260 km, 28.8° (Epoch: 15 September)

Event Time Altitude Azimuth Distance (km) Brightness Sun altitude
Rises 03:42:53 0° 262° (W) 3,806 9.7 50.1°
Reaches altitude 10° 03:45:28 10° 264° (W) 2,949 9.3 50.6°
Maximum altitude 03:53:01 78° 350° (N) 1,237 8.4 52.2°
Drops below altitude 10° 04:01:19 10° 77° (ENE) 3,233 10.4 54.0°
Sets 04:04:17 0° 78° (ENE) 4,190 10.7 54.7°
